Time,TemperatureF,DewpointF,PressureIn,WindDirection,WindDirectionDegrees,WindSpeedMPH,WindSpeedGustMPH,Humidity,HourlyPrecipIn,Conditions,Clouds,dailyrainin,SoftwareType,DateUTC
2013-06-04 00:01:00,73.2,67.7,29.97,South,178,0.0,0.0,83,0.00,,,0.00,WeatherCatV1.02B3,2013-06-04 05:01:00,
2013-06-04 00:06:00,73.1,67.6,29.96,South,178,0.0,0.0,83,0.00,,,0.00,WeatherCatV1.02B3,2013-06-04 05:06:00,
2013-06-04 00:11:00,72.9,67.4,29.96,South,178,0.0,0.0,83,0.00,,,0.00,WeatherCatV1.02B3,2013-06-04 05:11:00,
2013-06-04 00:16:00,72.8,67.3,29.96,South,178,0.0,0.0,83,0.00,,,0.00,WeatherCatV1.02B3,2013-06-04 05:16:00,
2013-06-04 00:21:00,72.7,67.2,29.96,South,178,0.0,0.0,83,0.00,,,0.00,WeatherCatV1.02B3,2013-06-04 05:21:00,
2013-06-04 00:26:00,72.5,67.0,29.96,South,178,0.0,0.0,83,0.00,,,0.00,WeatherCatV1.02B3,2013-06-04 05:26:00,
2013-06-04 00:31:00,72.4,67.3,29.96,South,178,0.0,0.0,84,0.00,,,0.00,WeatherCatV1.02B3,2013-06-04 05:31:00,
2013-06-04 00:36:00,72.3,67.2,29.95,South,178,0.0,0.0,84,0.00,,,0.00,WeatherCatV1.02B3,2013-06-04 05:36:00,
2013-06-04 00:41:00,72.2,67.1,29.95,South,178,0.0,1.0,84,0.00,,,0.00,WeatherCatV1.02B3,2013-06-04 05:41:00,
2013-06-04 00:46:00,72.2,67.1,29.95,South,178,0.0,0.0,84,0.00,,,0.00,WeatherCatV1.02B3,2013-06-04 05:46:00,
2013-06-04 00:51:00,72.1,67.0,29.95,South,178,0.0,0.0,84,0.00,,,0.00,WeatherCatV1.02B3,2013-06-04 05:51:00,
2013-06-04 00:56:00,72.1,67.0,29.96,South,178,0.0,0.0,84,0.00,,,0.00,WeatherCatV1.02B3,2013-06-04 05:56:00,
2013-06-04 01:01:00,72.1,67.0,29.95,South,178,0.0,0.0,84,0.00,,,0.00,WeatherCatV1.02B3,2013-06-04 06:01:00,
2013-06-04 01:06:00,72.0,67.2,29.95,South,178,0.0,0.0,85,0.00,,,0.00,WeatherCatV1.02B3,2013-06-04 06:06:00,
2013-06-04 01:11:00,71.9,67.1,29.95,South,178,0.0,0.0,85,0.00,,,0.00,WeatherCatV1.02B3,2013-06-04 06:11:00,
2013-06-04 01:16:00,71.8,67.0,29.95,South,178,0.0,0.0,85,0.00,,,0.00,WeatherCatV1.02B3,2013-06-04 06:16:00,
2013-06-04 01:21:00,71.7,66.9,29.95,South,178,0.0,0.0,85,0.00,,,0.00,WeatherCatV1.02B3,2013-06-04 06:21:00,
2013-06-04 01:26:00,71.6,66.8,29.95,South,178,0.0,0.0,85,0.00,,,0.00,WeatherCatV1.02B3,2013-06-04 06:26:00,
2013-06-04 01:31:00,71.5,67.1,29.95,South,178,0.0,0.0,86,0.00,,,0.00,WeatherCatV1.02B3,2013-06-04 06:31:00,
2013-06-04 01:36:00,71.3,66.9,29.95,South,178,0.0,0.0,86,0.00,,,0.00,WeatherCatV1.02B3,2013-06-04 06:36:00,
2013-06-04 01:41:00,71.2,66.8,29.95,South,178,0.0,0.0,86,0.00,,,0.00,WeatherCatV1.02B3,2013-06-04 06:41:00,
2013-06-04 01:46:00,71.2,67.1,29.95,South,178,0.0,0.0,87,0.00,,,0.00,WeatherCatV1.02B3,2013-06-04 06:46:00,
2013-06-04 01:51:00,71.0,66.9,29.95,South,178,0.0,0.0,87,0.00,,,0.00,WeatherCatV1.02B3,2013-06-04 06:51:00,
2013-06-04 01:56:00,71.0,66.9,29.95,South,178,0.0,0.0,87,0.00,,,0.00,WeatherCatV1.02B3,2013-06-04 06:56:00,
2013-06-04 02:01:00,70.9,67.2,29.95,South,178,0.0,0.0,88,0.00,,,0.00,WeatherCatV1.02B3,2013-06-04 07:01:00,
2013-06-04 02:06:00,70.9,66.8,29.95,South,178,0.0,0.0,87,0.00,,,0.00,WeatherCatV1.02B3,2013-06-04 07:06:00,
2013-06-04 02:11:00,70.9,67.2,29.95,South,178,0.0,0.0,88,0.00,,,0.00,WeatherCatV1.02B3,2013-06-04 07:11:00,
2013-06-04 02:16:00,70.9,67.2,29.95,South,178,0.0,0.0,88,0.00,,,0.00,WeatherCatV1.02B3,2013-06-04 07:16:00,
2013-06-04 02:21:00,70.9,67.2,29.95,South,178,0.0,0.0,88,0.00,,,0.00,WeatherCatV1.02B3,2013-06-04 07:21:00,
2013-06-04 02:26:00,70.8,67.1,29.95,South,178,0.0,0.0,88,0.00,,,0.00,WeatherCatV1.02B3,2013-06-04 07:26:00,
2013-06-04 02:31:00,70.8,67.1,29.95,South,178,0.0,0.0,88,0.00,,,0.00,WeatherCatV1.02B3,2013-06-04 07:31:00,
2013-06-04 02:36:00,70.8,67.1,29.95,South,178,0.0,0.0,88,0.00,,,0.00,WeatherCatV1.02B3,2013-06-04 07:36:00,
2013-06-04 02:41:00,70.9,67.2,29.95,South,178,0.0,0.0,88,0.00,,,0.00,WeatherCatV1.02B3,2013-06-04 07:41:00,
2013-06-04 02:46:00,70.9,67.2,29.95,South,178,0.0,1.0,88,0.00,,,0.00,WeatherCatV1.02B3,2013-06-04 07:46:00,
2013-06-04 02:51:00,70.9,66.8,29.95,South,178,0.0,0.0,87,0.00,,,0.00,WeatherCatV1.02B3,2013-06-04 07:51:00,
2013-06-04 02:56:00,71.0,66.9,29.96,South,178,0.0,0.0,87,0.00,,,0.00,WeatherCatV1.02B3,2013-06-04 07:56:00,
2013-06-04 03:01:00,70.9,66.8,29.95,South,178,0.0,0.0,87,0.00,,,0.00,WeatherCatV1.02B3,2013-06-04 08:01:00,
2013-06-04 03:06:00,70.9,66.8,29.96,South,178,0.0,0.0,87,0.00,,,0.00,WeatherCatV1.02B3,2013-06-04 08:06:00,
2013-06-04 03:11:00,70.9,66.8,29.96,South,178,0.0,0.0,87,0.00,,,0.00,WeatherCatV1.02B3,2013-06-04 08:11:00,
2013-06-04 03:16:00,70.8,66.7,29.96,South,178,0.0,0.0,87,0.00,,,0.00,WeatherCatV1.02B3,2013-06-04 08:16:00,
2013-06-04 03:21:00,70.7,66.6,29.96,South,178,0.0,0.0,87,0.00,,,0.00,WeatherCatV1.02B3,2013-06-04 08:21:00,
2013-06-04 03:26:00,70.6,66.5,29.96,South,178,0.0,0.0,87,0.00,,,0.00,WeatherCatV1.02B3,2013-06-04 08:26:00,
2013-06-04 03:31:00,70.6,66.9,29.96,South,178,0.0,0.0,88,0.00,,,0.00,WeatherCatV1.02B3,2013-06-04 08:31:00,
2013-06-04 03:36:00,70.5,66.8,29.96,South,178,0.0,0.0,88,0.00,,,0.00,WeatherCatV1.02B3,2013-06-04 08:36:00,
2013-06-04 03:41:00,70.5,66.8,29.96,South,178,0.0,0.0,88,0.00,,,0.00,WeatherCatV1.02B3,2013-06-04 08:41:00,
2013-06-04 03:46:00,70.5,66.8,29.96,South,178,0.0,0.0,88,0.00,,,0.00,WeatherCatV1.02B3,2013-06-04 08:46:00,
2013-06-04 03:51:00,70.4,66.7,29.96,South,178,0.0,0.0,88,0.00,,,0.00,WeatherCatV1.02B3,2013-06-04 08:51:00,
2013-06-04 03:56:00,70.3,66.2,29.96,South,178,0.0,0.0,87,0.00,,,0.00,WeatherCatV1.02B3,2013-06-04 08:56:00,
2013-06-04 04:01:00,70.2,66.1,29.96,South,178,0.0,0.0,87,0.00,,,0.00,WeatherCatV1.02B3,2013-06-04 09:01:00,
2013-06-04 04:06:00,70.2,66.1,29.96,South,178,0.0,0.0,87,0.00,,,0.00,WeatherCatV1.02B3,2013-06-04 09:06:00,
2013-06-04 04:11:00,70.1,66.0,29.96,South,178,0.0,0.0,87,0.00,,,0.00,WeatherCatV1.02B3,2013-06-04 09:11:00,
2013-06-04 04:16:00,70.1,66.0,29.96,South,178,0.0,0.0,87,0.00,,,0.00,WeatherCatV1.02B3,2013-06-04 09:16:00,
2013-06-04 04:21:00,69.9,65.8,29.96,South,178,0.0,0.0,87,0.00,,,0.00,WeatherCatV1.02B3,2013-06-04 09:21:00,
2013-06-04 04:26:00,69.9,65.8,29.96,South,178,0.0,0.0,87,0.00,,,0.00,WeatherCatV1.02B3,2013-06-04 09:26:00,
2013-06-04 04:31:00,69.7,65.6,29.96,South,178,0.0,0.0,87,0.00,,,0.00,WeatherCatV1.02B3,2013-06-04 09:31:00,
2013-06-04 04:36:00,69.6,65.6,29.96,South,178,0.0,0.0,87,0.00,,,0.00,WeatherCatV1.02B3,2013-06-04 09:36:00,
2013-06-04 04:41:00,69.5,65.8,29.96,South,178,0.0,1.0,88,0.00,,,0.00,WeatherCatV1.02B3,2013-06-04 09:41:00,
2013-06-04 04:46:00,69.5,65.8,29.96,South,178,0.0,0.0,88,0.00,,,0.00,WeatherCatV1.02B3,2013-06-04 09:46:00,
2013-06-04 04:51:00,69.5,65.8,29.96,South,178,0.0,0.0,88,0.00,,,0.00,WeatherCatV1.02B3,2013-06-04 09:51:00,
2013-06-04 04:56:00,69.4,65.7,29.95,South,178,0.0,0.0,88,0.00,,,0.00,WeatherCatV1.02B3,2013-06-04 09:56:00,
2013-06-04 05:01:00,69.4,65.7,29.95,South,178,0.0,0.0,88,0.00,,,0.00,WeatherCatV1.02B3,2013-06-04 10:01:00,
2013-06-04 05:06:00,69.3,65.6,29.95,South,178,0.0,0.0,88,0.00,,,0.00,WeatherCatV1.02B3,2013-06-04 10:06:00,
2013-06-04 05:11:00,69.3,65.6,29.96,South,178,0.0,0.0,88,0.00,,,0.00,WeatherCatV1.02B3,2013-06-04 10:11:00,
2013-06-04 05:16:00,69.3,65.6,29.95,South,180,0.0,2.0,88,0.00,,,0.00,WeatherCatV1.02B3,2013-06-04 10:16:00,
2013-06-04 05:21:00,69.2,65.5,29.95,South,180,0.0,0.0,88,0.00,,,0.00,WeatherCatV1.02B3,2013-06-04 10:21:00,
2013-06-04 05:26:00,69.2,65.5,29.95,South,180,0.0,0.0,88,0.00,,,0.00,WeatherCatV1.02B3,2013-06-04 10:26:00,
2013-06-04 05:31:00,69.2,65.5,29.95,South,180,0.0,0.0,88,0.00,,,0.00,WeatherCatV1.02B3,2013-06-04 10:31:00,
2013-06-04 05:36:00,69.2,65.5,29.96,South,180,0.0,0.0,88,0.00,,,0.00,WeatherCatV1.02B3,2013-06-04 10:36:00,
2013-06-04 05:41:00,69.2,65.5,29.95,South,180,0.0,0.0,88,0.00,,,0.00,WeatherCatV1.02B3,2013-06-04 10:41:00,
2013-06-04 05:46:00,69.1,65.4,29.95,South,180,0.0,0.0,88,0.00,,,0.00,WeatherCatV1.02B3,2013-06-04 10:46:00,
2013-06-04 05:51:00,69.2,65.5,29.95,South,180,0.0,0.0,88,0.00,,,0.00,WeatherCatV1.02B3,2013-06-04 10:51:00,
2013-06-04 05:56:00,69.1,65.4,29.95,South,180,0.0,1.0,88,0.00,,,0.00,WeatherCatV1.02B3,2013-06-04 10:56:00,
2013-06-04 06:01:00,69.1,65.4,29.95,South,180,0.0,0.0,88,0.00,,,0.00,WeatherCatV1.02B3,2013-06-04 11:01:00,
2013-06-04 06:06:00,69.1,65.4,29.95,South,180,0.0,1.0,88,0.00,,,0.00,WeatherCatV1.02B3,2013-06-04 11:06:00,
2013-06-04 06:11:00,69.0,65.3,29.95,South,180,0.0,0.0,88,0.00,,,0.00,WeatherCatV1.02B3,2013-06-04 11:11:00,
2013-06-04 06:16:00,69.0,65.3,29.95,South,180,0.0,0.0,88,0.00,,,0.00,WeatherCatV1.02B3,2013-06-04 11:16:00,
2013-06-04 06:21:00,69.0,65.3,29.95,South,180,0.0,0.0,88,0.00,,,0.00,WeatherCatV1.02B3,2013-06-04 11:21:00,
2013-06-04 06:26:00,69.0,65.3,29.95,South,180,0.0,1.0,88,0.00,,,0.00,WeatherCatV1.02B3,2013-06-04 11:26:00,
2013-06-04 06:31:00,69.0,65.3,29.95,South,180,0.0,0.0,88,0.00,,,0.00,WeatherCatV1.02B3,2013-06-04 11:31:00,
2013-06-04 06:36:00,69.0,65.6,29.95,South,180,0.0,0.0,89,0.00,,,0.00,WeatherCatV1.02B3,2013-06-04 11:36:00,
2013-06-04 06:41:00,69.0,65.6,29.95,South,180,0.0,0.0,89,0.00,,,0.00,WeatherCatV1.02B3,2013-06-04 11:41:00,
2013-06-04 06:46:00,69.1,65.7,29.95,South,180,0.0,0.0,89,0.00,,,0.00,WeatherCatV1.02B3,2013-06-04 11:46:00,
2013-06-04 06:51:00,69.1,65.7,29.95,South,180,0.0,0.0,89,0.00,,,0.00,WeatherCatV1.02B3,2013-06-04 11:51:00,
2013-06-04 06:56:00,69.2,65.8,29.95,South,180,0.0,0.0,89,0.00,,,0.00,WeatherCatV1.02B3,2013-06-04 11:56:00,
2013-06-04 07:01:00,69.3,65.9,29.95,South,180,0.0,1.0,89,0.00,,,0.00,WeatherCatV1.02B3,2013-06-04 12:01:00,
2013-06-04 07:06:00,69.5,65.8,29.96,South,180,1.0,2.0,88,0.00,,,0.00,WeatherCatV1.02B3,2013-06-04 12:06:00,
2013-06-04 07:11:00,69.8,66.1,29.96,South,180,0.0,0.0,88,0.00,,,0.00,WeatherCatV1.02B3,2013-06-04 12:11:00,
2013-06-04 07:16:00,70.1,66.0,29.96,South,180,0.0,1.0,87,0.00,,,0.00,WeatherCatV1.02B3,2013-06-04 12:16:00,
2013-06-04 07:21:00,70.3,66.2,29.96,South,180,0.0,0.0,87,0.00,,,0.00,WeatherCatV1.02B3,2013-06-04 12:21:00,
2013-06-04 07:26:00,70.6,66.5,29.96,South,180,0.0,0.0,87,0.00,,,0.00,WeatherCatV1.02B3,2013-06-04 12:26:00,
2013-06-04 07:31:00,70.7,66.6,29.95,South,180,0.0,0.0,87,0.00,,,0.00,WeatherCatV1.02B3,2013-06-04 12:31:00,
2013-06-04 07:36:00,70.9,66.8,29.95,South,180,0.0,0.0,87,0.00,,,0.00,WeatherCatV1.02B3,2013-06-04 12:36:00,
2013-06-04 07:41:00,71.0,66.6,29.96,South,180,0.0,0.0,86,0.00,,,0.00,WeatherCatV1.02B3,2013-06-04 12:41:00,
2013-06-04 07:46:00,71.2,66.8,29.96,South,180,0.0,1.0,86,0.00,,,0.00,WeatherCatV1.02B3,2013-06-04 12:46:00,
2013-06-04 07:51:00,71.3,66.9,29.96,South,180,0.0,0.0,86,0.00,,,0.00,WeatherCatV1.02B3,2013-06-04 12:51:00,
2013-06-04 07:56:00,71.5,67.1,29.96,South,180,0.0,1.0,86,0.00,,,0.00,WeatherCatV1.02B3,2013-06-04 12:56:00,
2013-06-04 08:01:00,71.6,66.8,29.96,South,180,1.0,1.0,85,0.00,,,0.00,WeatherCatV1.02B3,2013-06-04 13:01:00,
2013-06-04 08:06:00,71.8,67.0,29.96,South,182,0.0,0.0,85,0.00,,,0.00,WeatherCatV1.02B3,2013-06-04 13:06:00,
2013-06-04 08:11:00,72.2,67.4,29.97,South,182,3.0,3.0,85,0.00,,,0.00,WeatherCatV1.02B3,2013-06-04 13:11:00,
2013-06-04 08:16:00,72.7,67.6,29.97,SSW,203,0.0,3.0,84,0.00,,,0.00,WeatherCatV1.02B3,2013-06-04 13:16:00,
2013-06-04 08:21:00,73.4,67.9,29.97,SSW,203,0.0,3.0,83,0.00,,,0.00,WeatherCatV1.02B3,2013-06-04 13:21:00,
2013-06-04 08:26:00,74.2,68.0,29.97,SSW,198,0.0,2.0,81,0.00,,,0.00,WeatherCatV1.02B3,2013-06-04 13:26:00,
2013-06-04 08:31:00,74.7,68.1,29.97,WSW,238,2.0,2.0,80,0.00,,,0.00,WeatherCatV1.02B3,2013-06-04 13:31:00,
2013-06-04 08:36:00,75.2,68.2,29.98,SSW,198,0.0,0.0,79,0.00,,,0.00,WeatherCatV1.02B3,2013-06-04 13:36:00,
2013-06-04 08:41:00,75.6,69.0,29.98,SSW,193,0.0,1.0,80,0.00,,,0.00,WeatherCatV1.02B3,2013-06-04 13:41:00,
2013-06-04 08:46:00,75.9,68.9,29.98,SSW,192,0.0,1.0,79,0.00,,,0.00,WeatherCatV1.02B3,2013-06-04 13:46:00,
2013-06-04 08:51:00,76.0,68.6,29.98,SSW,196,1.0,1.0,78,0.00,,,0.00,WeatherCatV1.02B3,2013-06-04 13:51:00,
2013-06-04 08:56:00,76.2,69.2,29.98,South,177,0.0,1.0,79,0.00,,,0.00,WeatherCatV1.02B3,2013-06-04 13:56:00,
2013-06-04 09:01:00,76.3,69.3,29.98,South,171,5.0,5.0,79,0.00,,,0.00,WeatherCatV1.02B3,2013-06-04 14:01:00,
2013-06-04 09:06:00,76.4,69.4,29.98,South,176,0.0,4.0,79,0.00,,,0.00,WeatherCatV1.02B3,2013-06-04 14:06:00,
2013-06-04 09:11:00,76.6,69.6,29.98,South,176,0.0,0.0,79,0.00,,,0.00,WeatherCatV1.02B3,2013-06-04 14:11:00,
2013-06-04 09:16:00,76.7,70.0,29.99,South,178,0.0,0.0,80,0.00,,,0.00,WeatherCatV1.02B3,2013-06-04 14:16:00,
2013-06-04 09:21:00,76.9,69.9,29.99,South,175,0.0,1.0,79,0.00,,,0.00,WeatherCatV1.02B3,2013-06-04 14:21:00,
2013-06-04 09:26:00,77.1,70.4,29.99,South,175,0.0,0.0,80,0.00,,,0.00,WeatherCatV1.02B3,2013-06-04 14:26:00,
2013-06-04 09:31:00,77.4,70.4,29.99,South,190,0.0,1.0,79,0.00,,,0.00,WeatherCatV1.02B3,2013-06-04 14:31:00,
2013-06-04 09:36:00,77.8,70.4,29.99,East,79,0.0,2.0,78,0.00,,,0.00,WeatherCatV1.02B3,2013-06-04 14:36:00,
2013-06-04 09:41:00,78.3,70.9,29.99,SSW,202,1.0,2.0,78,0.00,,,0.00,WeatherCatV1.02B3,2013-06-04 14:41:00,
2013-06-04 09:46:00,78.7,70.9,29.99,SSW,202,0.0,0.0,77,0.00,,,0.00,WeatherCatV1.02B3,2013-06-04 14:46:00,
2013-06-04 09:51:00,79.0,71.2,29.99,SSW,201,0.0,3.0,77,0.00,,,0.00,WeatherCatV1.02B3,2013-06-04 14:51:00,
2013-06-04 09:56:00,79.3,71.4,29.99,SSW,201,0.0,0.0,77,0.00,,,0.00,WeatherCatV1.02B3,2013-06-04 14:56:00,
2013-06-04 10:01:00,79.5,71.3,29.99,SW,232,1.0,4.0,76,0.00,,,0.00,WeatherCatV1.02B3,2013-06-04 15:01:00,
2013-06-04 10:06:00,79.9,71.6,29.99,SW,234,0.0,1.0,76,0.00,,,0.00,WeatherCatV1.02B3,2013-06-04 15:06:00,
2013-06-04 10:11:00,80.2,71.9,29.99,SW,221,0.0,3.0,76,0.00,,,0.00,WeatherCatV1.02B3,2013-06-04 15:11:00,
2013-06-04 10:16:00,80.5,71.4,29.99,SW,221,0.0,1.0,74,0.00,,,0.00,WeatherCatV1.02B3,2013-06-04 15:16:00,
2013-06-04 10:21:00,80.9,71.4,29.99,South,185,0.0,4.0,73,0.00,,,0.00,WeatherCatV1.02B3,2013-06-04 15:21:00,
2013-06-04 10:26:00,81.0,71.1,29.99,SSE,154,0.0,5.0,72,0.00,,,0.00,WeatherCatV1.02B3,2013-06-04 15:26:00,
2013-06-04 10:31:00,81.1,72.0,29.99,SW,219,1.0,1.0,74,0.00,,,0.00,WeatherCatV1.02B3,2013-06-04 15:31:00,
2013-06-04 10:36:00,81.2,71.7,29.99,South,181,0.0,4.0,73,0.00,,,0.00,WeatherCatV1.02B3,2013-06-04 15:36:00,
2013-06-04 10:41:00,81.4,72.3,29.99,WNW,296,0.0,3.0,74,0.00,,,0.00,WeatherCatV1.02B3,2013-06-04 15:41:00,
2013-06-04 10:46:00,81.7,72.6,29.99,WNW,296,0.0,0.0,74,0.00,,,0.00,WeatherCatV1.02B3,2013-06-04 15:46:00,
2013-06-04 10:51:00,82.0,72.9,29.99,SSW,199,0.0,7.0,74,0.00,,,0.00,WeatherCatV1.02B3,2013-06-04 15:51:00,
2013-06-04 10:56:00,82.3,72.3,29.99,West,266,0.0,3.0,72,0.00,,,0.00,WeatherCatV1.02B3,2013-06-04 15:56:00,
2013-06-04 11:01:00,82.6,73.0,29.99,West,273,4.0,4.0,73,0.00,,,0.00,WeatherCatV1.02B3,2013-06-04 16:01:00,
2013-06-04 11:06:00,83.0,73.0,29.99,SW,219,0.0,1.0,72,0.00,,,0.00,WeatherCatV1.02B3,2013-06-04 16:06:00,
2013-06-04 11:11:00,83.3,72.9,29.99,West,277,0.0,1.0,71,0.00,,,0.00,WeatherCatV1.02B3,2013-06-04 16:11:00,
2013-06-04 11:16:00,83.6,73.6,29.99,SW,221,0.0,0.0,72,0.00,,,0.00,WeatherCatV1.02B3,2013-06-04 16:16:00,
2013-06-04 11:21:00,83.9,73.5,29.98,West,270,0.0,2.0,71,0.00,,,0.00,WeatherCatV1.02B3,2013-06-04 16:21:00,
2013-06-04 11:26:00,84.3,73.8,29.99,SE,144,0.0,1.0,71,0.00,,,0.00,WeatherCatV1.02B3,2013-06-04 16:26:00,
2013-06-04 11:31:00,84.5,73.6,29.98,West,269,2.0,3.0,70,0.00,,,0.00,WeatherCatV1.02B3,2013-06-04 16:31:00,
2013-06-04 11:36:00,84.7,73.4,29.98,West,268,0.0,6.0,69,0.00,,,0.00,WeatherCatV1.02B3,2013-06-04 16:36:00,
2013-06-04 11:41:00,84.7,73.8,29.98,WNW,290,1.0,2.0,70,0.00,,,0.00,WeatherCatV1.02B3,2013-06-04 16:41:00,
2013-06-04 11:46:00,84.9,74.0,29.99,West,274,2.0,3.0,70,0.00,,,0.00,WeatherCatV1.02B3,2013-06-04 16:46:00,
2013-06-04 11:51:00,85.0,73.7,29.99,WNW,284,0.0,0.0,69,0.00,,,0.00,WeatherCatV1.02B3,2013-06-04 16:51:00,
2013-06-04 11:56:00,85.1,74.2,29.98,WNW,288,0.0,1.0,70,0.00,,,0.00,WeatherCatV1.02B3,2013-06-04 16:56:00,
2013-06-04 12:01:00,85.3,74.4,29.98,WNW,284,0.0,1.0,70,0.00,,,0.00,WeatherCatV1.02B3,2013-06-04 17:01:00,
2013-06-04 12:06:00,85.6,74.7,29.98,NW,314,0.0,1.0,70,0.00,,,0.00,WeatherCatV1.02B3,2013-06-04 17:06:00,
2013-06-04 12:11:00,85.8,74.9,29.98,NW,306,0.0,1.0,70,0.00,,,0.00,WeatherCatV1.02B3,2013-06-04 17:11:00,
2013-06-04 12:16:00,86.0,75.0,29.98,West,271,1.0,1.0,70,0.00,,,0.00,WeatherCatV1.02B3,2013-06-04 17:16:00,
2013-06-04 12:21:00,86.3,75.3,29.98,West,275,0.0,2.0,70,0.00,,,0.00,WeatherCatV1.02B3,2013-06-04 17:21:00,
2013-06-04 12:26:00,86.4,75.0,29.98,WNW,286,4.0,4.0,69,0.00,,,0.00,WeatherCatV1.02B3,2013-06-04 17:26:00,
2013-06-04 12:31:00,86.8,74.9,29.98,NW,306,0.0,2.0,68,0.00,,,0.00,WeatherCatV1.02B3,2013-06-04 17:31:00,
2013-06-04 12:36:00,87.0,75.1,29.98,NW,326,0.0,1.0,68,0.00,,,0.00,WeatherCatV1.02B3,2013-06-04 17:36:00,
2013-06-04 12:41:00,87.2,74.4,29.98,WNW,285,0.0,1.0,66,0.00,,,0.00,WeatherCatV1.02B3,2013-06-04 17:41:00,
2013-06-04 12:46:00,87.6,73.9,29.98,WNW,285,1.0,1.0,64,0.00,,,0.00,WeatherCatV1.02B3,2013-06-04 17:46:00,
2013-06-04 12:51:00,87.5,76.0,29.98,SSW,205,0.0,4.0,69,0.00,,,0.00,WeatherCatV1.02B3,2013-06-04 17:51:00,
2013-06-04 12:56:00,87.3,74.5,29.98,WSW,258,0.0,4.0,66,0.00,,,0.00,WeatherCatV1.02B3,2013-06-04 17:56:00,
2013-06-04 13:01:00,87.2,74.4,29.98,WSW,255,0.0,0.0,66,0.00,,,0.00,WeatherCatV1.02B3,2013-06-04 18:01:00,
2013-06-04 13:06:00,87.0,74.7,29.97,WSW,254,0.0,0.0,67,0.00,,,0.00,WeatherCatV1.02B3,2013-06-04 18:06:00,
2013-06-04 13:11:00,86.7,75.3,29.97,SW,219,0.0,0.0,69,0.00,,,0.00,WeatherCatV1.02B3,2013-06-04 18:11:00,
2013-06-04 13:16:00,86.9,74.1,29.97,SW,219,0.0,0.0,66,0.00,,,0.00,WeatherCatV1.02B3,2013-06-04 18:16:00,
2013-06-04 13:21:00,87.7,74.9,29.97,SE,130,0.0,2.0,66,0.00,,,0.00,WeatherCatV1.02B3,2013-06-04 18:21:00,
2013-06-04 13:26:00,87.7,74.4,29.97,WNW,282,0.0,0.0,65,0.00,,,0.00,WeatherCatV1.02B3,2013-06-04 18:26:00,
2013-06-04 13:31:00,88.5,77.0,29.97,WNW,282,0.0,1.0,69,0.00,,,0.00,WeatherCatV1.02B3,2013-06-04 18:31:00,
2013-06-04 13:36:00,89.0,75.7,29.97,SW,234,0.0,2.0,65,0.00,,,0.00,WeatherCatV1.02B3,2013-06-04 18:36:00,
2013-06-04 13:41:00,88.5,75.2,29.97,SSW,202,2.0,3.0,65,0.00,,,0.00,WeatherCatV1.02B3,2013-06-04 18:41:00,
2013-06-04 13:46:00,88.0,75.2,29.96,South,186,0.0,0.0,66,0.00,,,0.00,WeatherCatV1.02B3,2013-06-04 18:46:00,
2013-06-04 13:51:00,87.4,74.6,29.96,South,186,0.0,0.0,66,0.00,,,0.00,WeatherCatV1.02B3,2013-06-04 18:51:00,
2013-06-04 13:56:00,87.0,74.2,29.96,South,186,0.0,0.0,66,0.00,,,0.00,WeatherCatV1.02B3,2013-06-04 18:56:00,
2013-06-04 14:01:00,86.6,75.6,29.96,South,186,0.0,2.0,70,0.00,,,0.00,WeatherCatV1.02B3,2013-06-04 19:01:00,
2013-06-04 14:06:00,86.9,76.3,29.96,SE,128,6.0,6.0,71,0.00,,,0.00,WeatherCatV1.02B3,2013-06-04 19:06:00,
2013-06-04 14:11:00,88.1,76.2,29.95,ESE,119,2.0,6.0,68,0.00,,,0.00,WeatherCatV1.02B3,2013-06-04 19:11:00,
2013-06-04 14:16:00,88.6,76.2,29.95,ESE,105,0.0,1.0,67,0.00,,,0.00,WeatherCatV1.02B3,2013-06-04 19:16:00,
2013-06-04 14:21:00,88.1,74.8,29.95,East,92,1.0,2.0,65,0.00,,,0.00,WeatherCatV1.02B3,2013-06-04 19:21:00,
2013-06-04 14:26:00,88.1,76.6,29.95,East,92,0.0,1.0,69,0.00,,,0.00,WeatherCatV1.02B3,2013-06-04 19:26:00,
2013-06-04 14:31:00,88.7,77.2,29.95,SE,130,1.0,5.0,69,0.00,,,0.00,WeatherCatV1.02B3,2013-06-04 19:31:00,
2013-06-04 14:36:00,89.0,76.1,29.95,SE,143,1.0,4.0,66,0.00,,,0.00,WeatherCatV1.02B3,2013-06-04 19:36:00,
2013-06-04 14:41:00,89.2,76.3,29.94,ENE,73,2.0,3.0,66,0.00,,,0.00,WeatherCatV1.02B3,2013-06-04 19:41:00,
2013-06-04 14:46:00,89.0,75.2,29.94,East,94,0.0,4.0,64,0.00,,,0.00,WeatherCatV1.02B3,2013-06-04 19:46:00,
2013-06-04 14:51:00,89.1,76.7,29.94,SE,139,0.0,4.0,67,0.00,,,0.00,WeatherCatV1.02B3,2013-06-04 19:51:00,
2013-06-04 14:56:00,88.8,76.8,29.93,SE,146,2.0,6.0,68,0.00,,,0.00,WeatherCatV1.02B3,2013-06-04 19:56:00,
2013-06-04 15:01:00,89.3,76.0,29.93,ENE,65,0.0,1.0,65,0.00,,,0.00,WeatherCatV1.02B3,2013-06-04 20:01:00,
2013-06-04 15:06:00,89.3,75.0,29.93,SW,217,0.0,1.0,63,0.00,,,0.00,WeatherCatV1.02B3,2013-06-04 20:06:00,
2013-06-04 15:11:00,89.5,76.6,29.93,SSW,207,0.0,0.0,66,0.00,,,0.00,WeatherCatV1.02B3,2013-06-04 20:11:00,
2013-06-04 15:16:00,90.5,77.6,29.92,WSW,254,0.0,3.0,66,0.00,,,0.00,WeatherCatV1.02B3,2013-06-04 20:16:00,
2013-06-04 15:21:00,90.5,77.1,29.92,SSW,213,1.0,2.0,65,0.00,,,0.00,WeatherCatV1.02B3,2013-06-04 20:21:00,
2013-06-04 15:26:00,90.6,76.2,29.92,South,173,2.0,5.0,63,0.00,,,0.00,WeatherCatV1.02B3,2013-06-04 20:26:00,
2013-06-04 15:31:00,90.8,75.0,29.92,SSW,199,2.0,5.0,60,0.00,,,0.00,WeatherCatV1.02B3,2013-06-04 20:31:00,
2013-06-04 15:35:00,90.5,75.2,29.92,SW,225,1.0,2.0,61,0.00,,,0.00,WeatherCatV1.02B3,2013-06-04 20:35:00,
2013-06-04 15:36:00,90.5,75.7,29.92,SW,225,0.0,2.0,62,0.00,,,0.00,WeatherCatV1.02B3,2013-06-04 20:36:00,
2013-06-04 15:41:00,89.4,75.6,29.92,SW,221,2.0,4.0,64,0.00,,,0.00,WeatherCatV1.02B3,2013-06-04 20:41:00,
2013-06-04 15:46:00,89.2,74.4,29.92,SW,219,0.0,3.0,62,0.00,,,0.00,WeatherCatV1.02B3,2013-06-04 20:46:00,
2013-06-04 15:51:00,89.3,75.5,29.93,SSE,165,4.0,9.0,64,0.00,,,0.00,WeatherCatV1.02B3,2013-06-04 20:51:00,
2013-06-04 15:56:00,89.2,75.4,29.93,NW,317,2.0,4.0,64,0.00,,,0.00,WeatherCatV1.02B3,2013-06-04 20:56:00,
2013-06-04 16:01:00,88.4,75.1,29.92,NE,54,0.0,4.0,65,0.00,,,0.00,WeatherCatV1.02B3,2013-06-04 21:01:00,
2013-06-04 16:06:00,87.9,74.6,29.92,East,90,0.0,4.0,65,0.00,,,0.00,WeatherCatV1.02B3,2013-06-04 21:06:00,
2013-06-04 16:11:00,88.0,75.2,29.92,NE,45,2.0,5.0,66,0.00,,,0.00,WeatherCatV1.02B3,2013-06-04 21:11:00,
2013-06-04 16:16:00,89.0,75.7,29.92,SE,126,1.0,3.0,65,0.00,,,0.00,WeatherCatV1.02B3,2013-06-04 21:16:00,
2013-06-04 16:21:00,89.7,75.9,29.91,South,170,1.0,10.0,64,0.00,,,0.00,WeatherCatV1.02B3,2013-06-04 21:21:00,
2013-06-04 16:26:00,89.9,75.6,29.90,South,171,4.0,5.0,63,0.00,,,0.00,WeatherCatV1.02B3,2013-06-04 21:26:00,
2013-06-04 16:31:00,90.3,76.4,29.90,SSE,159,1.0,6.0,64,0.00,,,0.00,WeatherCatV1.02B3,2013-06-04 21:31:00,
2013-06-04 16:36:00,90.3,76.4,29.90,South,180,0.0,3.0,64,0.00,,,0.00,WeatherCatV1.02B3,2013-06-04 21:36:00,
2013-06-04 16:41:00,90.8,76.4,29.90,SSE,151,4.0,5.0,63,0.00,,,0.00,WeatherCatV1.02B3,2013-06-04 21:41:00,
2013-06-04 16:46:00,90.4,76.0,29.90,East,92,1.0,5.0,63,0.00,,,0.00,WeatherCatV1.02B3,2013-06-04 21:46:00,
2013-06-04 16:51:00,90.1,75.3,29.90,NW,315,2.0,3.0,62,0.00,,,0.00,WeatherCatV1.02B3,2013-06-04 21:51:00,
2013-06-04 16:56:00,90.5,76.6,29.89,NW,306,1.0,2.0,64,0.00,,,0.00,WeatherCatV1.02B3,2013-06-04 21:56:00,
2013-06-04 17:01:00,90.3,76.0,29.89,NNW,345,3.0,3.0,63,0.00,,,0.00,WeatherCatV1.02B3,2013-06-04 22:01:00,
2013-06-04 17:06:00,89.5,76.1,29.90,North,355,6.0,6.0,65,0.00,,,0.00,WeatherCatV1.02B3,2013-06-04 22:06:00,
2013-06-04 17:11:00,89.1,74.8,29.90,NNE,22,0.0,5.0,63,0.00,,,0.00,WeatherCatV1.02B3,2013-06-04 22:11:00,
2013-06-04 17:16:00,89.0,75.2,29.89,NNE,22,0.0,4.0,64,0.00,,,0.00,WeatherCatV1.02B3,2013-06-04 22:16:00,
2013-06-04 17:21:00,89.2,75.4,29.89,North,349,0.0,2.0,64,0.00,,,0.00,WeatherCatV1.02B3,2013-06-04 22:21:00,
2013-06-04 17:27:00,89.6,75.8,29.89,NW,315,0.0,2.0,64,0.00,,,0.00,WeatherCatV1.02B3,2013-06-04 22:27:00,
2013-06-04 17:32:00,89.7,75.9,29.89,NNW,340,2.0,3.0,64,0.00,,,0.00,WeatherCatV1.02B3,2013-06-04 22:32:00,
2013-06-04 17:37:00,89.6,75.3,29.89,NNW,342,0.0,3.0,63,0.00,,,0.00,WeatherCatV1.02B3,2013-06-04 22:37:00,
2013-06-04 17:42:00,89.3,75.0,29.90,North,0,0.0,0.0,63,0.00,,,0.00,WeatherCatV1.02B3,2013-06-04 22:42:00,
2013-06-04 17:47:00,88.9,75.1,29.89,North,355,0.0,3.0,64,0.00,,,0.00,WeatherCatV1.02B3,2013-06-04 22:47:00,
2013-06-04 17:52:00,88.5,75.2,29.89,NNW,340,0.0,3.0,65,0.00,,,0.00,WeatherCatV1.02B3,2013-06-04 22:52:00,
2013-06-04 17:57:00,88.4,75.6,29.89,North,0,3.0,3.0,66,0.00,,,0.00,WeatherCatV1.02B3,2013-06-04 22:57:00,
2013-06-04 18:02:00,88.3,75.5,29.89,ENE,57,0.0,2.0,66,0.00,,,0.00,WeatherCatV1.02B3,2013-06-04 23:02:00,
2013-06-04 18:07:00,88.2,75.4,29.89,WNW,288,2.0,4.0,66,0.00,,,0.00,WeatherCatV1.02B3,2013-06-04 23:07:00,
2013-06-04 18:12:00,88.0,75.6,29.89,WNW,296,0.0,2.0,67,0.00,,,0.00,WeatherCatV1.02B3,2013-06-04 23:12:00,
2013-06-04 18:17:00,87.7,74.9,29.89,WSW,258,0.0,3.0,66,0.00,,,0.00,WeatherCatV1.02B3,2013-06-04 23:17:00,
2013-06-04 18:22:00,87.6,75.7,29.89,SSE,159,1.0,2.0,68,0.00,,,0.00,WeatherCatV1.02B3,2013-06-04 23:22:00,
2013-06-04 18:27:00,87.5,75.6,29.89,SSE,159,1.0,1.0,68,0.00,,,0.00,WeatherCatV1.02B3,2013-06-04 23:27:00,
2013-06-04 18:32:00,87.3,75.4,29.90,North,355,0.0,0.0,68,0.00,,,0.00,WeatherCatV1.02B3,2013-06-04 23:32:00,
2013-06-04 18:37:00,87.3,75.0,29.89,NW,318,0.0,4.0,67,0.00,,,0.00,WeatherCatV1.02B3,2013-06-04 23:37:00,
2013-06-04 18:42:00,87.2,75.3,29.89,NNE,17,1.0,4.0,68,0.00,,,0.00,WeatherCatV1.02B3,2013-06-04 23:42:00,
2013-06-04 18:47:00,87.0,75.1,29.90,North,355,1.0,2.0,68,0.00,,,0.00,WeatherCatV1.02B3,2013-06-04 23:47:00,
2013-06-04 18:52:00,86.7,75.3,29.90,NE,51,0.0,0.0,69,0.00,,,0.00,WeatherCatV1.02B3,2013-06-04 23:52:00,
2013-06-04 18:57:00,86.6,75.6,29.90,NNE,13,0.0,0.0,70,0.00,,,0.00,WeatherCatV1.02B3,2013-06-04 23:57:00,
2013-06-04 19:02:00,86.4,75.0,29.90,NNE,13,0.0,0.0,69,0.00,,,0.00,WeatherCatV1.02B3,2013-06-05 00:02:00,
2013-06-04 19:07:00,86.3,75.3,29.90,NNE,13,0.0,0.0,70,0.00,,,0.00,WeatherCatV1.02B3,2013-06-05 00:07:00,
2013-06-04 19:12:00,86.2,75.2,29.90,NNE,13,0.0,0.0,70,0.00,,,0.00,WeatherCatV1.02B3,2013-06-05 00:12:00,
2013-06-04 19:17:00,86.0,75.0,29.90,NNE,13,0.0,1.0,70,0.00,,,0.00,WeatherCatV1.02B3,2013-06-05 00:17:00,
2013-06-04 19:22:00,85.9,75.4,29.90,NNE,25,0.0,1.0,71,0.00,,,0.00,WeatherCatV1.02B3,2013-06-05 00:22:00,
2013-06-04 19:27:00,85.8,75.3,29.90,NNE,25,0.0,0.0,71,0.00,,,0.00,WeatherCatV1.02B3,2013-06-05 00:27:00,
2013-06-04 19:32:00,85.7,76.0,29.90,NNE,14,0.0,0.0,73,0.00,,,0.00,WeatherCatV1.02B3,2013-06-05 00:32:00,
2013-06-04 19:37:00,85.5,75.4,29.90,West,274,0.0,0.0,72,0.00,,,0.00,WeatherCatV1.02B3,2013-06-05 00:37:00,
2013-06-04 19:42:00,85.4,75.7,29.90,West,274,0.0,0.0,73,0.00,,,0.00,WeatherCatV1.02B3,2013-06-05 00:42:00,
2013-06-04 19:47:00,85.2,75.5,29.90,West,274,0.0,0.0,73,0.00,,,0.00,WeatherCatV1.02B3,2013-06-05 00:47:00,
2013-06-04 19:52:00,84.9,75.3,29.91,West,274,0.0,0.0,73,0.00,,,0.00,WeatherCatV1.02B3,2013-06-05 00:52:00,
2013-06-04 19:57:00,84.7,75.5,29.91,West,274,0.0,0.0,74,0.00,,,0.00,WeatherCatV1.02B3,2013-06-05 00:57:00,
2013-06-04 20:02:00,84.5,75.7,29.91,West,274,0.0,0.0,75,0.00,,,0.00,WeatherCatV1.02B3,2013-06-05 01:02:00,
2013-06-04 20:07:00,84.3,75.5,29.91,West,274,0.0,0.0,75,0.00,,,0.00,WeatherCatV1.02B3,2013-06-05 01:07:00,
2013-06-04 20:12:00,84.1,75.7,29.91,West,274,0.0,0.0,76,0.00,,,0.00,WeatherCatV1.02B3,2013-06-05 01:12:00,
2013-06-04 20:17:00,83.9,75.5,29.91,West,274,0.0,0.0,76,0.00,,,0.00,WeatherCatV1.02B3,2013-06-05 01:17:00,
2013-06-04 20:22:00,83.7,75.7,29.91,West,274,0.0,0.0,77,0.00,,,0.00,WeatherCatV1.02B3,2013-06-05 01:22:00,
2013-06-04 20:27:00,83.5,75.5,29.92,West,274,0.0,0.0,77,0.00,,,0.00,WeatherCatV1.02B3,2013-06-05 01:27:00,
2013-06-04 20:32:00,83.2,75.6,29.92,West,274,0.0,0.0,78,0.00,,,0.00,WeatherCatV1.02B3,2013-06-05 01:32:00,
2013-06-04 20:37:00,83.0,75.4,29.92,West,274,0.0,0.0,78,0.00,,,0.00,WeatherCatV1.02B3,2013-06-05 01:37:00,
2013-06-04 20:42:00,82.8,75.6,29.92,West,274,0.0,0.0,79,0.00,,,0.00,WeatherCatV1.02B3,2013-06-05 01:42:00,
2013-06-04 20:47:00,82.6,75.4,29.92,West,274,0.0,0.0,79,0.00,,,0.00,WeatherCatV1.02B3,2013-06-05 01:47:00,
2013-06-04 20:52:00,82.4,75.6,29.92,West,274,0.0,0.0,80,0.00,,,0.00,WeatherCatV1.02B3,2013-06-05 01:52:00,
2013-06-04 20:57:00,82.2,75.4,29.92,West,274,0.0,0.0,80,0.00,,,0.00,WeatherCatV1.02B3,2013-06-05 01:57:00,
2013-06-04 21:02:00,82.0,75.6,29.92,West,274,0.0,0.0,81,0.00,,,0.00,WeatherCatV1.02B3,2013-06-05 02:02:00,
2013-06-04 21:07:00,81.8,75.4,29.92,West,274,0.0,0.0,81,0.00,,,0.00,WeatherCatV1.02B3,2013-06-05 02:07:00,
2013-06-04 21:12:00,81.6,75.6,29.92,West,274,0.0,0.0,82,0.00,,,0.00,WeatherCatV1.02B3,2013-06-05 02:12:00,
2013-06-04 21:17:00,81.4,75.4,29.92,West,274,0.0,0.0,82,0.00,,,0.00,WeatherCatV1.02B3,2013-06-05 02:17:00,
2013-06-04 21:22:00,81.2,75.2,29.93,West,274,0.0,0.0,82,0.00,,,0.00,WeatherCatV1.02B3,2013-06-05 02:22:00,
2013-06-04 21:27:00,81.0,75.3,29.93,West,274,0.0,0.0,83,0.00,,,0.00,WeatherCatV1.02B3,2013-06-05 02:27:00,
2013-06-04 21:32:00,80.8,75.1,29.93,West,274,0.0,0.0,83,0.00,,,0.00,WeatherCatV1.02B3,2013-06-05 02:32:00,
2013-06-04 21:37:00,80.6,74.9,29.93,West,274,0.0,0.0,83,0.00,,,0.00,WeatherCatV1.02B3,2013-06-05 02:37:00,
2013-06-04 21:42:00,80.3,75.0,29.93,West,274,0.0,0.0,84,0.00,,,0.00,WeatherCatV1.02B3,2013-06-05 02:42:00,
2013-06-04 21:47:00,80.1,74.8,29.93,West,274,0.0,0.0,84,0.00,,,0.00,WeatherCatV1.02B3,2013-06-05 02:47:00,
2013-06-04 21:52:00,80.0,75.1,29.94,West,274,0.0,0.0,85,0.00,,,0.00,WeatherCatV1.02B3,2013-06-05 02:52:00,
2013-06-04 21:57:00,79.8,74.9,29.94,West,274,0.0,0.0,85,0.00,,,0.00,WeatherCatV1.02B3,2013-06-05 02:57:00,
2013-06-04 22:02:00,79.6,74.7,29.93,West,274,0.0,0.0,85,0.00,,,0.00,WeatherCatV1.02B3,2013-06-05 03:02:00,
2013-06-04 22:07:00,79.4,74.8,29.93,West,274,0.0,0.0,86,0.00,,,0.00,WeatherCatV1.02B3,2013-06-05 03:07:00,
2013-06-04 22:12:00,79.3,74.7,29.93,West,274,0.0,0.0,86,0.00,,,0.00,WeatherCatV1.02B3,2013-06-05 03:12:00,
2013-06-04 22:17:00,79.1,74.5,29.94,West,274,0.0,0.0,86,0.00,,,0.00,WeatherCatV1.02B3,2013-06-05 03:17:00,
2013-06-04 22:22:00,79.0,74.4,29.94,West,274,0.0,0.0,86,0.00,,,0.00,WeatherCatV1.02B3,2013-06-05 03:22:00,
2013-06-04 22:27:00,78.8,74.6,29.94,West,274,0.0,0.0,87,0.00,,,0.00,WeatherCatV1.02B3,2013-06-05 03:27:00,
2013-06-04 22:32:00,78.7,74.5,29.94,West,274,0.0,0.0,87,0.00,,,0.00,WeatherCatV1.02B3,2013-06-05 03:32:00,
2013-06-04 22:37:00,78.6,74.4,29.94,West,274,0.0,0.0,87,0.00,,,0.00,WeatherCatV1.02B3,2013-06-05 03:37:00,
2013-06-04 22:42:00,78.6,74.4,29.94,West,274,0.0,0.0,87,0.00,,,0.00,WeatherCatV1.02B3,2013-06-05 03:42:00,
2013-06-04 22:47:00,78.5,74.3,29.94,West,274,0.0,0.0,87,0.00,,,0.00,WeatherCatV1.02B3,2013-06-05 03:47:00,
2013-06-04 22:52:00,78.4,74.5,29.94,West,274,0.0,0.0,88,0.00,,,0.00,WeatherCatV1.02B3,2013-06-05 03:52:00,
2013-06-04 22:57:00,78.4,74.5,29.94,West,274,0.0,0.0,88,0.00,,,0.00,WeatherCatV1.02B3,2013-06-05 03:57:00,
2013-06-04 23:01:00,78.3,74.4,29.94,West,274,0.0,0.0,88,0.00,,,0.00,WeatherCatV1.02B3,2013-06-05 04:01:00,
2013-06-04 23:06:00,78.2,74.3,29.94,West,274,0.0,0.0,88,0.00,,,0.00,WeatherCatV1.02B3,2013-06-05 04:06:00,
2013-06-04 23:11:00,78.1,74.2,29.94,West,274,0.0,0.0,88,0.00,,,0.00,WeatherCatV1.02B3,2013-06-05 04:11:00,
2013-06-04 23:16:00,78.0,74.1,29.94,West,274,0.0,0.0,88,0.00,,,0.00,WeatherCatV1.02B3,2013-06-05 04:16:00,
2013-06-04 23:21:00,78.0,74.1,29.95,West,274,0.0,0.0,88,0.00,,,0.00,WeatherCatV1.02B3,2013-06-05 04:21:00,
2013-06-04 23:26:00,78.0,74.5,29.95,West,274,0.0,0.0,89,0.00,,,0.00,WeatherCatV1.02B3,2013-06-05 04:26:00,
2013-06-04 23:31:00,78.0,74.5,29.95,West,274,0.0,0.0,89,0.00,,,0.00,WeatherCatV1.02B3,2013-06-05 04:31:00,
2013-06-04 23:36:00,77.9,74.4,29.95,West,274,0.0,0.0,89,0.00,,,0.00,WeatherCatV1.02B3,2013-06-05 04:36:00,
2013-06-04 23:41:00,77.9,74.4,29.95,West,274,0.0,0.0,89,0.00,,,0.00,WeatherCatV1.02B3,2013-06-05 04:41:00,
2013-06-04 23:46:00,77.9,74.4,29.95,West,274,0.0,0.0,89,0.00,,,0.00,WeatherCatV1.02B3,2013-06-05 04:46:00,
2013-06-04 23:51:00,77.8,74.3,29.95,West,274,0.0,0.0,89,0.00,,,0.00,WeatherCatV1.02B3,2013-06-05 04:51:00,
2013-06-04 23:56:00,77.8,74.3,29.95,West,274,0.0,0.0,89,0.00,,,0.00,WeatherCatV1.02B3,2013-06-05 04:56:00,